Tin City LRRS, AK

4:15 AM AKDT on June 26, 2017 (GMT -0800)
Tin City | | Change Station

Elev 269 ft 65.56 °N, 167.92 °W | Updated 20 minutes ago

Mostly Cloudy
Mostly Cloudy
46 °F
Feels Like 40 °F
N
14
Wind Variable Wind from NNE

Today
High -- | Low -- °F
--% Chance of Precip.
Yesterday
High -- | Low -- °F
Precip. -- in
Pressure 29.71 in
Visibility 10.0 miles
Clouds Mostly Cloudy 13000 ft
Mostly Cloudy 15000 ft
Mostly Cloudy 19000 ft
Windchill 40 °F
Dew Point 41 °F
Humidity 83%
Rainfall 0.00 in
Snow Depth Not available.
3:50 AM 2:36 AM
Waxing Crescent, 8% visible
METAR PATC 261155Z AUTO 03012KT 10SM BKN130 BKN150 BKN190 08/05 A2970 RMK AO2 SLP060 T00800052 10093 20078 58021
Pressure 29.71 in
Visibility 10.0 miles
Clouds Mostly Cloudy 13000 ft
Mostly Cloudy 15000 ft
Mostly Cloudy 19000 ft
Windchill 40 °F
Dew Point 41 °F
Humidity 83%
Rainfall 0.00 in
Snow Depth Not available.
3:50 AM 2:36 AM
Waxing Crescent, 8% visible
METAR PATC 261155Z AUTO 03012KT 10SM BKN130 BKN150 BKN190 08/05 A2970 RMK AO2 SLP060 T00800052 10093 20078 58021

Get Severe Weather Alerts

Thanks for signing up!

Be on the lookout for a verification email in your inbox.

You'll start receiving the daily forecast at 6 AM.

×

10-Day Weather Forecast

Almanac

Astronomy

Jun. 26, 2017 Rise Set
Actual Time
Civil Twilight
Nautical Twilight
Astronomical Twilight
Moon
Length of Visible Light
Length of Day
Tomorrow will be .
, % of the Moon is Illuminated

Today's Extremes

State Highs State Lows

Community

WunderPhotos

Category 6

Welcome to Category 6. This is the collective home for Weather Underground's featured writeups by Dr. Jeff Masters (right), Bob Henson (left), Chris Burt, and other regular contributors.

Nearby

Air Quality

  Air Quality AQ Index Pollutant
Not available.

Snow Depth

Station Depth Elevation

Earthquake Activity

City Distance Mag. Time & Date
Minimum magnitude displayed is 2.5.

Coastal Water Temperatures

Place Temperature

Stations

Nearby Weather Stations

Station Location Temp. Windchill Dew Point Humidity Wind Precip. Elev Updated Type
                   

Watches & Warnings

There are currently no watches in effect.